Location: Unspecified
(0.0000°N, 0.0000°E)
Time: 13:42:03
(UTC+00:00)

Vanguard 2 - Pass Details

Date: 21 November 2019
Orbit: 553 x 2938 km, 32.9° (Epoch: 08 December)

Event Time Altitude Azimuth Distance (km) Brightness Sun altitude
Rises 15:33:48 0° 310° (NW) 2,705 10.7 30.8°
Reaches altitude 10° 15:35:53 10° 313° (NW) 1,834 9.9 30.3°
Maximum altitude 15:39:51 67° 36° (NE) 677 7.5 29.4°
Drops below altitude 10° 15:45:02 10° 119° (ESE) 2,383 9.8 28.2°
Sets 15:48:04 0° 121° (ESE) 3,617 10.7 27.5°
